YE0EEE-10 Weather Reports


time (UTC)temp
F
wind
direction
speed
knots
gust
knots
rain 1hr
in
rain 24hr
in
rain mn
in
humidity
%
barometer
mb
20260504005628 85 0 1.7 1.7 0.00 0.00 0.00 79 1013.1
20260504005425 85 35 2.6 3.5 0.00 0.00 0.00 79 1013.1
20260504005227 85 352 1.7 4.3 0.00 0.00 0.00 80 1013.1
20260504005025 85 56 1.7 3.5 0.00 0.00 0.00 80 1013.1
20260504004827 84 16 1.7 3.5 0.00 0.00 0.00 80 1013.1
20260504004625 84 355 1.7 3.5 0.00 0.00 0.00 80 1013.1
20260504004427 84 339 1.7 3.5 0.00 0.00 0.00 81 1013.1
20260504004225 84 324 1.7 3.5 0.00 0.00 0.00 81 1013.0
20260504004027 83 45 1.7 2.6 0.00 0.00 0.00 82 1012.9
20260504003825 83 45 1.7 2.6 0.00 0.00 0.00 82 1013.0
20260504003627 83 45 1.7 2.6 0.00 0.00 0.00 82 1013.0
20260504003425 83 1.7 2.6 0.00 0.00 0.00 82 1012.8
20260504003227 83 1.7 2.6 0.00 0.00 0.00 82 1012.8
20260504003025 83 1.7 2.6 0.00 0.00 0.00 82 1012.9
20260504002827 82 0 0.9 2.6 0.00 0.00 0.00 82 1012.9
20260504002625 82 0 0.9 2.6 0.00 0.00 0.00 83 1012.8
20260504002427 82 341 1.7 3.5 0.00 0.00 0.00 83 1012.8
20260504002225 82 330 1.7 4.3 0.00 0.00 0.00 83 1012.8
20260504002027 82 315 2.6 4.3 0.00 0.00 0.00 83 1012.8
20260504001825 81 285 2.6 3.5 0.00 0.00 0.00 84 1012.8
20260504001627 81 45 2.6 3.5 0.00 0.00 0.00 88 1012.7
20260504001425 81 45 0.9 3.5 0.00 0.00 0.00 88 1012.7
20260504001227 81 0.0 0.0 0.00 0.00 0.00 88 1012.8
20260504001025 81 0.0 0.0 0.00 0.00 0.00 88 1012.8
20260504000828 81 0.0 0.0 0.00 0.00 0.00 88 1012.7
20260504000625 80 0.0 0.0 0.00 0.00 0.00 88 1012.8
20260504000427 80 0.0 1.7 0.00 0.00 0.00 88 1012.7
20260504000226 80 45 0.0 1.7 0.00 0.00 0.00 88 1012.7
20260504000027 80 0.0 0.0 0.00 0.00 0.00 88 1012.7
20260503235825 80 0.0 0.0 0.00 0.00 0.00 88 1012.7
20260503235627 80 23 0.9 1.7 0.00 0.00 0.00 88 1012.7
20260503235425 79 0.0 0.0 0.00 0.00 0.00 88 1012.8
20260503235227 79 0.0 0.0 0.00 0.00 0.00 88 1012.7
20260503235025 79 0.0 0.0 0.00 0.00 0.00 87 1012.7
20260503234827 79 0.0 0.0 0.00 0.00 0.00 87 1012.7
20260503234625 79 0.0 0.0 0.00 0.00 0.00 87 1012.7
20260503234427 79 0.0 0.0 0.00 0.00 0.00 87 1012.7
20260503234225 79 0.0 0.0 0.00 0.00 0.00 87 1012.7
20260503234027 79 0.0 1.7 0.00 0.00 0.00 87 1012.8
20260503233825 79 354 0.9 1.7 0.00 0.00 0.00 87 1012.7
20260503233627 79 0.0 1.7 0.00 0.00 0.00 87 1012.8
20260503233425 79 0 0.0 1.7 0.00 0.00 0.00 87 1012.8
20260503233228 79 0.0 0.0 0.00 0.00 0.00 87 1012.8
20260503233025 79 315 0.9 1.7 0.00 0.00 0.00 87 1012.7
20260503232827 79 338 0.9 1.7 0.00 0.00 0.00 87 1012.7
20260503232625 79 45 0.9 1.7 0.00 0.00 0.00 87 1012.7
20260503232427 79 45 0.9 1.7 0.00 0.00 0.00 87 1012.7
20260503232225 79 338 0.9 2.6 0.00 0.00 0.00 87 1012.6
20260503232027 79 354 0.9 1.7 0.00 0.00 0.00 87 1012.6
20260503231825 79 315 0.0 1.7 0.00 0.00 0.00 87 1012.5
20260503231627 79 35 0.9 1.7 0.00 0.00 0.00 87 1012.4
20260503231425 79 335 1.7 2.6 0.00 0.00 0.00 87 1012.3
20260503231227 79 315 1.7 2.6 0.00 0.00 0.00 87 1012.3
20260503231025 79 0.0 0.0 0.00 0.00 0.00 87 1012.2
20260503230827 79 0.0 0.0 0.00 0.00 0.00 87 1012.1
20260503230625 79 0.0 0.0 0.00 0.00 0.00 87 1012.1
20260503230427 79 0.0 0.0 0.00 0.00 0.00 87 1012.0
20260503230225 79 0.0 0.0 0.00 0.00 0.00 86 1012.0
20260503230027 79 0.0 0.0 0.00 0.00 0.00 86 1012.0
20260503225825 79 0.0 0.0 0.00 0.00 0.00 86 1011.9
20260503225627 79 0.0 0.0 0.00 0.00 0.00 86 1011.9
20260503225425 79 0.0 0.0 0.00 0.00 0.00 86 1011.7
20260503225227 79 0.0 0.0 0.00 0.00 0.00 86 1011.7
20260503225025 79 135 0.0 2.6 0.00 0.00 0.00 86 1011.7
20260503224827 79 343 1.7 2.6 0.00 0.00 0.00 86 1011.7
20260503224625 79 266 0.9 1.7 0.00 0.00 0.00 86 1011.7
20260503224428 79 225 0.9 1.7 0.00 0.00 0.00 86 1011.7
20260503224225 79 225 0.9 1.7 0.00 0.00 0.00 86 1011.6
20260503224027 79 0.0 0.0 0.00 0.00 0.00 86 1011.6
20260503223825 79 0.0 0.0 0.00 0.00 0.00 86 1011.7
20260503223627 79 0.0 0.0 0.00 0.00 0.00 86 1011.7